Airfield :
LOGIN :

Register | Disclaimer

   EN    FR    IT 

 










Legend :    VFR   Marginal VFR   IFR   Intensive IFR   Very Intensive IFR
Visi :
Ceiling :
>= 8 km
>= 3000ft
5 to 8 km
1000 to 3000 ft
1500m to 5 km
500 to 1000 ft
800 to 1500m
200 to 500 ft
< 800m
< 200 ft
Symbols :   Thunderstorms  Fog  Heavy snow  Heavy precipitations  Wind > 20 kt
SIGMETs :     Misc.  Thunderstorms  Icing  Turbulence  Mountain Waves  Volcanic Ashes







- Airport Elevation : 284 ft


EGUW - RAF Wattisham

CURRENT METAR :
  • 161450Z 20012KT 9999 FEW025 SCT250 20/14 Q1015 BLU NOSIG

EXPIRED METARs :
  • 161350Z 21014KT 9999 FEW025 20/14 Q1015 BLU NOSIG
  • 161250Z 19009KT 9999 FEW025 20/13 Q1015 BLU NOSIG

TAF AMD TAF EGUW
Valid from the 16 at 15:00 until the 17 at 00:00 UTC


161458Z 1615/1624 18010KT 9999 FEW030
PROB40
TEMPO 1618/1621 FEW010 BKN016
No reported NOTAMs for that airfield.



MET'MAP, your aeronautical weather chart ! - Copyright ORBIFLY December 2007 - Disclaimer

ORBIFLY MET'MAP TEAM :

Programming & Development : Alexandra Zaïnal
Concept & Development : Baudouin d'Aumeries
Co-Development & Prog : Marc-Olivier Méhu
Technical & hardware support : Manuel Goepfert

Contact : metmap@orbifly.com




SOURCES & CREDITS :

   NOAA